MyMeetScores TOP 100 TOP TEAMS UPCOMING MEETS COMPLETED MEETS LATEST MEETS ADD SCORES SUPPORT SHOP
Pretty in PinkShop@
MyMeetScores
 
Olivia Lopez, Kinetic Gymnastics - MyMeetScores.com
Olivia Lopez
Kinetic Gymnastics
Personal Bests
Level Vault Bars Beam Floor AA
3 8.900 7.950 8.850 9.000 34.550
4 9.350 8.900 8.900 9.625 36.350
6 8.650 8.300 9.275 9.500 34.950
7 9.000 9.050 9.025 9.400 36.225
XB 9.700 9.200 9.100 9.300 36.600
Meet Scores
Date Meet Team Session Level Division Vault Bars Beam Floor AA
2023-01-27 2023 California Grand Invitational Kinetic Gymnastics 05H 7 Junior 9.000 4 8.850 7 7.775 10 9.400 4T 35.025 7
2023-01-12 Active Athletics Women Colorado Classic 2023 Kinetic Gymnastics 04 7 Child 8.850 3T 9.050 3T 9.025 6 9.300 1 36.225 1
2023-01-06 2023 Sweetheart Invitational Kinetic Gymnastics 1 7 Jr C 8.750 7 8.900 5 8.700 5T 8.400 8 34.750 6T
2022-03-25 2022 Colorado Level 7,9 %2610 State Championshi Kinetic Gymnastics 4 7 JR B 8.500 13 7.025 14 8.225 13 9.175 8 32.925 13
2022-03-06 2022 Colorado Sky Invitational Kinetic Gymnastics 5A 7 Jr A 8.350 15 8.300 14 8.925 11 8.825 14 34.400 13
2022-02-18 2022 Magical Classic Kinetic Gymnastics D6 7 D6L7G2 8.950 8T 8.250 11 8.700 9T 9.400 3T 35.300 9
2022-01-28 KC Coed Classic Kinetic Gymnastics 04R 7 11 yrs. 8.750 7T 7.700 12 9.025 6 9.175 7T 34.650 9
2022-01-22 5280 Women's Mile High Invitational Kinetic Gymnastics 1 7 Younger 8.625 17 7.750 34 8.600 26 9.000 28T 33.975 30
2022-01-07 Sweetheart Invitational 2022 Kinetic Gymnastics 1 7 Jr A 8.775 9T 8.075 10 7.500 10 9.200 3 33.550 8
2021-04-10 CO Level 6/7 State Meet Kinetic Gymnastics 4 6 Jr A 8.650 12T 7.200 17 8.750 11T 9.500 4 34.100 16
2021-03-25 Active Athletics Hippity Hoppity 2021 Kinetic Gymnastics 07 6 All 8.550 9 8.275 6 9.275 5 8.625 8 34.725 8
2021-03-05 Live, Love Gymnastics Kinetic Gymnastics 13 6 CHILD 8.500 6 8.300 7 9.150 2 9.000 8 34.950 7
2021-01-15 Colorado Classic 2021 Kinetic Gymnastics 03 6 Junior 8.600 4T 8.300 8 8.375 7 9.225 5T 34.500 6
2019-11-16 Colorado Level 4 State Kinetic Gymnastics 4 4 Jr. 2A 9.350 2 8.900 9T 8.475 9 9.625 2 36.350 6
2019-10-18 2019 Pink Ribbon Invitational Kinetic Gymnastics 4 4 Jr B 8.100 9 8.275 6 8.750 4 9.225 1 34.350 3
2019-10-05 2019 Judge's Cup NAWGJ Colorado Kinetic Gymnastics 3 4 Child 8.400 12T 8.150 13 8.700 7 8.700 12 33.950 14
2019-09-27 2019 CGI Autumn Classic Kinetic Gymnastics 4 4 CH A 8.450 6T 8.450 12 8.625 12 8.950 5 34.475 10
2019-09-14 2019 AGA Septemberfest Kinetic Gymnastics 3 4 All 8.675 4 7.700 15T 8.725 5 9.225 4 34.325 6
2018-11-16 2018 Colorado Level 4 State Meet Kinetic Gymnastics 1 4 J1 B 8.550 7 7.625 15T 7.650 15 9.000 9 32.825 12
2018-10-27 Xtreme Altitude Fall Classic Kinetic Gymnastics 2 4 Child 8.600 5 8.000 19 8.500 14 8.500 18 33.600 15
2018-10-06 2018 AGA Rocktoberfest Kinetic Gymnastics 2 4 Ch 7.900 15 7.800 17 8.050 17 8.700 15 32.450 16
2018-09-15 2018 Cgi Autumn Classic Kinetic Gymnastics 5 4 Jr A 8.000 9T 7.450 13 8.900 9 7.775 12 32.125 11
2018-08-25 2018 Summer Carnival Kinetic Gymnastics 1 4 Jr A 8.000 22T 6.400 63 7.950 29T 8.400 22T 30.750 40
2017-12-09 Level 3 State Championships Kinetic Gymnastics 1 3 Jr A 8.800 8 7.950 7T 8.850 5 8.950 1T 34.550 5
2017-11-11 2017 AGA Compulsory Meet Kinetic Gymnastics 1 3 Ch 8.900 3 6.400 20 7.400 17 8.700 14T 31.400 18
2017-11-04 Mile High Salute Kinetic Gymnastics 1 3 Group 1 8.600 9 6.950 12 7.900 12 8.050 12 31.500 11
2017-10-21 JET Gymnastics Pink Ribbon Invitational Kinetic Gymnastics 4 3 Jr A 8.400 14 0.000 14T 7.650 14T 9.000 8T 25.050 14
2017-06-10 2017 Colorado Xcel Bronze State Championships Kinetic Gymnastics 3 XB Jr A 8.875 11T 8.850 14 8.200 16 9.000 11 34.925 16
2017-05-20 2017 Cartwheel Carnival Kinetic Gymnastics 6 XB Child 1 9.000 5T 8.000 11 8.600 7 9.200 5T 34.800 9
2017-05-06 Xcel Xtravaganza Kinetic Gymnastics 4 XB Child 9.100 11T 9.100 10T 9.100 7T 9.300 8T 36.600 7
2017-03-31 Hippity Hoppity 2017 Kinetic Gymnastics 05 XB Junior A 9.700 1 9.200 8 8.500 9T 9.100 5T 36.500 5
2017-03-17 Peak Live Love Gymnastics 2017 Kinetic Gymnastics 9 XB JR B 8.700 11T 8.400 16 8.550 11T 9.150 9 34.800 11T
2017-03-03 2017 CSI Colorado Sky Invitational Kinetic Gymnastics 6B XB Junior 8.750 1 8.200 9 8.600 7 9.200 3 34.750 7